User: anonymous   Login
Location: Unspecified
(0.0000°N, 0.0000°E)
Time: 08:56:37
(UTC+00:00)
Language:

USA 247 - Orbit

View from above orbital plane
View from above orbital plane
View from above satellite
View from above satellite

Ground track
Ground track

The orbit data is extracted from the following two-line orbital elements,

1 39462U 13072A   17202.92294885 0.00000000  00000-0  00000-0 0    09
2 39462 122.9997  13.1152 0004000  15.7417 344.2583 13.41417831    09
Epoch (UTC): 21 July 2017 22:09:02
Eccentricity: 0.0004000
inclination: 122.9997°
perigee height: 1101 km
apogee height: 1107 km
right ascension of ascending node: 13.1152°
argument of perigee: 15.7417°
revolutions per day: 13.41417831
mean anomaly at epoch: 344.2583°
orbit number at epoch: 0

The dashed part of the orbit path shows where the satellite is in the earth's shadow,  

DLR